Showing default

JACKAL-01, 59127

Orbit data source: Space-Track

JACKAL-01, 59127 is a payload satellite owned by True Anomaly (US) in SSO that was launched on Mon, 04 Mar 2024 UTC via an FALCON 9 launch vehicle from the Air Force Western Test Range (AFWTR). Payloads include a variety of satellites, spacecraft, and rockets equipped with specific instruments for various scientific and technological missions. These include communications satellites like Starlink; space stations such as the ISS; scientific satellites like the Hubble; Earth observation satellites from companies like Planet Labs, Umbra, and HawkEye 360; GPS; miniature CubeSats for education and research; and military/defense satellites.

Loading next visibility...
JACKAL-01 details
Identifier
59127, 2024-043AF
Orbit
SSO
Last TLE update17 hours ago
Origin
Flag of USTrue Anomaly (US)
ManufacturerTrue Anomaly
MissionOperational Defense Technology
Bus & MotorJACKAL, Unknown motor
Mass275 kg wet, 275 kg dry
Launch date (UTC)
2024-03-04 (11 months ago)
Launch vehicle
FALCON 9
Launch site
Air Force Western Test Range (AFWTR)
Object type
Payload
Rocket body
Debris
Shape & HBRBox + 4 Pan, 0.3 m
Radar Cross Section0.080 m², Medium (>0.1 m² and < 1m²)

Expand to show TLE details & history

TLE from 17 hours ago
0 JACKAL-01
1 59127U 24043AF  25042.88404429  .00015324  00000-0  56904-3 0  9991
2 59127  97.4952 172.0045 0010115 163.2416 196.9159 15.27612566 52291
Epoch: 2025-02-11T21:13Z
Definitive object data (Epoch: 2025-02-11T21:13:01.426Z)
Latitude-0.00005°
Longitude71.5661°
Altitude492.691 km
Speed7.615 km/s
True Right ascension11h 28m 01s
True Declination0° 00' 00"
Sunlit
Object was in full shadow at TLE epoch
Visualization TLE readout
Latitude-23.07745°
Longitude75.48179°
Altitude498.605 km
Speed7.61 km/s
Apparent Right ascension08h 55m 25s
Apparent Declination-43° 20' 58"
Sunlit
Object is in full shadow
Visualization observer readout
Local Sidereal Time16:55:35
Azimuth245.048° WSW
Elevation-46.03°
Doppler factor1
Orbital elements
Apogee altitude486.848 km
Perigee altitude472.974 km
Semi-major axis6,858.048 km
Eccentricity0.0010115
Inclination97.4952°
RAAN172.0045°
Arg. of periapsis163.2416°
True anomaly196.88221°
Mean anomaly196.9159°
Eccentric anomaly196.89905°
Mean motion3.82157 °/min
BSTAR0.00056904
Orbital period94.2 mins
Loading maneuver chart data...
Loading historical data...
Loading historical data...
Loading historical data...
Loading historical data...
Loading historical data...
Loading historical data...
Loading historical data...

JACKAL-01 Visibility forecast

Observer location: undefined°, undefined

Span
Click to sort rows by Start time (UTC) header in descending order
Start Az.
Max El. time (UTC)
Max El. Az.
Max El.
End time (UTC)
End Az.
6 mins2025-02-12 21:21:30.858Z12.549° NNE2025-02-12 21:24:30.858Z164.49° S44.948°2025-02-12 21:27:30.858Z192.406° SSW
4 mins2025-02-13 07:57:30.858Z115.685° SE2025-02-13 07:59:30.858Z60.597° ENE25.496°2025-02-13 08:01:30.858Z18.086° NNE
|